St. Charles, IL

3:14 AM CDT on June 25, 2017 (GMT -0500)
Saint Charles County Smartt

Weather History for KSET - January, 2014

Change the Weather History Date:

Wednesday, January 29, 2014

  Actual Average (KSTL) Record (KSTL)
Temperature  
Mean Temperature 18 °F -  
Max Temperature 34 °F 40 °F 73 °F (2008)
Min Temperature 3 °F 22 °F -8 °F (1966)
Degree Days  
Heating Degree Days 46    
Moisture  
Dew Point 2 °F    
Average Humidity 52    
Maximum Humidity 80    
Minimum Humidity 26    
Precipitation  
Precipitation 0.00 in - - ()
Sea Level Pressure  
Sea Level Pressure 30.28 in    
Wind  
Wind Speed 6 mph (South)    
Max Wind Speed 20 mph    
Max Gust Speed 24 mph    
Visibility 10 miles    
Events      
Averages and records for this station are not official NWS values.
T = Trace of Precipitation, MM = Missing Value Source: NWS Daily Summary

Daily Weather History Graph

Daily Weather History Graph

Search for Another Location

Airport or City:

Trip Planner

Search our weather history database for the weather conditions in past years. The results will help you decide how hot, cold, wet, or windy it might be!

Date:

Astronomy

Jan. 29, 2014 Rise Set
Actual Time 7:10 AM CST 5:19 PM CST
Civil Twilight 6:42 AM CST 5:47 PM CST
Nautical Twilight 6:10 AM CST 6:20 PM CST
Astronomical Twilight 5:38 AM CST 6:51 PM CST
Moon 5:47 AM CST (1/29) 4:19 PM CST (1/29)
Length of Visible Light 11h 05m
Length of Day
10h 09m
Waning Crescent, 2% of the Moon is Illuminated
Jan 29
Waning Crescent
Jan 30
New
Feb 6
First Quarter
Feb 14
Full
Feb 22
Last Quarter

Hourly Weather History & Observations

Time (CST) Temp. Windchill Dew Point Humidity Pressure Visibility Wind Dir Wind Speed Gust Speed Precip Events Conditions
12:54 AM 5.0 °F - -0.9 °F 76% 30.39 in 10.0 mi Calm Calm - N/A   Clear
1:54 AM 3.9 °F -3.4 °F -0.9 °F 80% 30.38 in 10.0 mi ENE 3.5 mph - N/A   Clear
2:54 AM 3.9 °F - -0.9 °F 80% 30.37 in 10.0 mi Calm Calm - N/A   Clear
3:54 AM 5.0 °F -4.1 °F -2.0 °F 73% 30.35 in 10.0 mi East 4.6 mph - N/A   Clear
4:54 AM 5.0 °F - -2.9 °F 70% 30.36 in 10.0 mi Calm Calm - N/A   Clear
5:54 AM 3.9 °F - -0.9 °F 80% 30.36 in 10.0 mi Calm Calm - N/A   Clear
6:54 AM 3.0 °F -4.4 °F -2.9 °F 76% 30.37 in 10.0 mi East 3.5 mph - N/A   Clear
7:54 AM 8.1 °F - 1.9 °F 76% 30.37 in 10.0 mi Calm Calm - N/A   Clear
8:54 AM 15.1 °F 5.2 °F 3.0 °F 59% 30.37 in 10.0 mi SW 6.9 mph - N/A   Clear
9:54 AM 19.9 °F 10.1 °F 3.0 °F 48% 30.36 in 10.0 mi SW 8.1 mph - N/A   Clear
10:54 AM 25.0 °F 13.6 °F 1.9 °F 37% 30.35 in 10.0 mi SSW 12.7 mph - N/A   Clear
11:54 AM 28.9 °F 17.7 °F 3.0 °F 33% 30.33 in 10.0 mi SW 15.0 mph - N/A   Clear
12:54 PM 30.0 °F 20.0 °F 1.0 °F 29% 30.30 in 10.0 mi SW 12.7 mph 24.2 mph N/A   Clear
1:54 PM 33.1 °F 21.5 °F 1.9 °F 27% 30.27 in 10.0 mi SW 19.6 mph - N/A   Clear
2:54 PM 34.0 °F 24.2 °F 1.9 °F 26% 30.25 in 10.0 mi SW 15.0 mph - N/A   Clear
3:54 PM 34.0 °F 24.2 °F 1.9 °F 26% 30.22 in 10.0 mi SW 15.0 mph - N/A   Clear
4:54 PM 33.1 °F 23.9 °F 3.9 °F 29% 30.21 in 10.0 mi South 12.7 mph - N/A   Clear
5:54 PM 28.0 °F 18.1 °F 5.0 °F 38% 30.19 in 10.0 mi South 11.5 mph - N/A   Clear
6:54 PM 24.1 °F 14.4 °F 6.1 °F 46% 30.19 in 10.0 mi SSE 9.2 mph - N/A   Clear
7:54 PM 23.0 °F 12.4 °F 7.0 °F 50% 30.17 in 10.0 mi SSE 10.4 mph - N/A   Clear
8:54 PM 24.1 °F 13.1 °F 7.0 °F 48% 30.14 in 10.0 mi SSE 11.5 mph - N/A   Clear
9:54 PM 25.0 °F 14.8 °F 6.1 °F 45% 30.14 in 10.0 mi South 10.4 mph - N/A   Clear
10:54 PM 23.0 °F 13.1 °F 6.1 °F 48% 30.13 in 10.0 mi SSE 9.2 mph - N/A   Clear
11:54 PM 21.9 °F 11.0 °F 6.1 °F 51% 30.10 in 10.0 mi SSE 10.4 mph - N/A   Clear